Theta_e
343 343 342 345 346 345 346 344 339 333 334 340 340 348 348 349 352 350 352 350 349 347 346 346 347 349 351 352 352 353 354 355 355 355 355 357 359 361
344 342 342 342 341 344 342 342 342 339 334 342 344 347 349 354 354 349 349 349 347 345 343 343 345 346 347 349 349 350 350 351 350 352 352 352 353 354
340 341 341 342 341 342 342 341 340 339 333 339 344 346 345 347 349 348 346 345 346 344 343 342 341 343 345 345 346 347 347 348 348 348 349 349 350 351
334 336 339 343 339 340 339 337 337 338 336 335 340 340 343 347 347 345 348 351 346 345 340 341 339 339 339 340 341 341 342 342 343 343 344 346 347 347
331 333 335 336 337 338 338 338 338 339 336 334 334 341 343 345 344 346 346 345 344 343 339 340 337 338 338 337 336 336 335 336 336 337 338 340 342 344
330 330 333 334 334 335 337 336 338 337 336 334 334 335 338 342 342 340 339 343 344 349 349 347 344 342 338 335 335 334 331 330 329 331 332 333 335 338
329 332 332 339 339 336 336 335 336 333 333 333 332 331 331 331 333 337 338 340 343 347 346 347 348 346 343 338 340 338 332 329 327 327 327 327 328 330
328 329 329 334 334 336 336 337 337 333 331 331 330 330 330 330 333 334 336 335 333 346 343 341 347 345 349 345 340 337 332 329 327 326 324 324 324 326
326 325 327 329 324 322 327 334 336 336 336 335 331 332 332 333 334 334 334 336 336 340 341 336 343 341 348 349 335 334 331 330 327 326 325 324 322 321
319 321 321 320 318 318 319 321 324 327 331 335 333 335 337 341 340 340 337 335 338 340 341 334 340 339 343 347 336 335 331 329 327 325 323 321 319 317
314 318 318 316 318 318 313 313 315 319 327 331 330 329 331 334 335 336 336 330 329 333 339 335 333 334 335 339 344 336 332 328 324 324 324 321 319 315
309 310 317 317 315 313 310 309 309 313 318 323 323 324 328 332 335 336 335 332 329 329 337 334 332 333 330 338 341 340 336 325 322 321 323 320 315 323
305 306 309 313 311 310 311 308 309 314 317 318 319 321 326 329 336 334 336 336 331 332 337 336 334 330 330 330 336 340 341 332 332 326 316 314 312 322
303 305 306 309 308 309 312 315 315 317 316 317 318 320 324 326 331 334 337 337 338 337 335 335 333 333 328 327 330 337 339 338 336 336 332 320 313 314
304 308 309 309 308 310 312 314 315 316 320 317 317 321 323 328 329 331 333 338 334 338 338 335 334 334 334 332 330 333 333 338 337 337 336 328 325 322
305 302 308 308 307 307 306 307 308 310 312 312 317 323 324 324 325 326 326 327 327 329 333 336 334 333 332 334 333 333 335 332 339 339 339 336 331 329
304 302 301 301 301 301 301 302 304 305 305 307 308 316 320 322 322 326 326 328 326 325 325 328 333 334 334 332 328 332 331 332 336 339 338 337 339 336
301 299 299 299 300 300 299 299 300 302 302 304 307 309 311 316 318 321 323 324 324 324 322 324 326 326 326 329 334 330 328 331 332 334 336 335 337 341
297 298 298 299 299 300 299 299 299 300 301 301 301 303 310 314 316 317 317 319 321 322 323 325 324 321 317 318 324 325 329 331 332 329 332 335 334 337
296 295 297 298 299 299 299 299 299 299 299 299 300 302 303 305 308 311 313 312 313 316 319 322 323 322 320 321 321 323 316 331 328 329 330 332 331 325
296 296 296 296 299 299 299 299 299 299 299 299 299 299 300 300 304 308 310 308 309 311 312 314 320 323 327 325 322 325 325 315 325 331 330 328 326 326
298 297 297 296 298 300 299 299 298 298 298 299 299 299 299 299 301 303 305 306 308 309 312 315 319 321 323 321 322 321 321 325 317 315 318 325 326 324
298 298 297 296 298 300 300 299 299 298 298 298 299 299 299 298 298 299 300 301 304 305 309 310 312 317 320 322 321 324 322 322 323 322 321 316 318 317
Wind_Speed
4 5 3 1 2 2 3 4 6 4 4 2 2 3 2 3 3 2 7 8 14 19 19 20 23 24 25 24 23 22 22 22 22 21 20 20 21 22
3 4 3 2 3 2 2 4 5 3 4 3 3 3 3 2 5 5 4 3 3 8 13 18 23 25 24 23 23 22 21 20 20 20 20 20 20 20
7 6 6 3 3 3 3 2 3 3 5 4 4 1 4 6 4 6 6 6 4 4 11 17 16 19 22 23 23 23 23 22 20 20 19 19 19 19
7 7 7 4 5 4 3 5 4 4 3 7 3 4 5 6 7 7 5 4 5 8 14 14 14 19 20 19 21 22 21 21 21 20 19 19 19 18
7 7 8 6 6 4 4 4 3 3 3 4 5 3 4 3 5 6 4 4 5 11 13 21 19 16 17 17 16 18 20 20 19 18 18 19 19 19
6 7 7 6 6 6 5 6 4 3 3 3 4 4 3 5 3 4 5 3 5 7 10 15 16 18 21 15 15 14 17 18 18 18 18 18 18 18
7 6 9 11 13 11 4 6 5 3 3 3 4 3 3 3 4 3 4 5 5 7 6 5 4 4 5 11 11 16 16 15 17 17 18 18 17 17
7 7 9 10 13 14 16 15 8 4 4 3 3 4 6 4 3 4 4 3 4 1 3 3 3 2 2 4 11 14 15 15 17 17 17 17 17 18
9 8 9 8 13 12 14 14 13 11 8 4 5 5 5 5 4 5 5 4 4 3 2 2 3 4 4 5 13 13 13 14 17 17 17 17 17 17
11 11 9 5 12 13 12 12 11 10 8 6 4 6 8 10 7 6 6 5 3 3 4 4 3 4 4 4 14 11 6 11 13 14 15 15 14 15
11 11 13 4 16 22 12 11 12 12 11 13 9 13 14 13 10 2 5 3 4 4 4 4 3 3 4 5 6 15 15 12 11 12 14 13 13 13
11 12 16 16 23 23 14 12 13 12 11 12 13 13 10 12 13 9 5 5 4 3 4 4 3 3 3 2 4 5 4 8 10 10 9 7 9 4
8 9 10 20 23 25 22 13 12 14 16 11 10 8 9 8 7 6 8 6 5 6 4 4 3 2 2 3 2 5 7 4 6 6 11 13 13 9
8 9 11 23 24 23 17 20 21 17 8 8 7 6 7 7 8 7 8 7 7 9 5 6 4 4 4 3 3 2 4 4 4 5 5 3 10 11
8 13 19 17 19 14 23 23 19 12 12 8 6 5 4 5 5 5 6 9 7 6 6 6 5 4 4 4 3 3 3 4 6 5 5 6 6 4
13 7 10 13 16 15 14 14 11 10 10 10 12 10 6 4 4 3 3 4 2 4 5 7 7 6 4 6 4 5 4 4 4 6 6 5 4 6
9 7 8 10 10 11 11 12 11 11 11 11 11 12 10 9 8 4 4 4 2 3 4 4 6 8 7 6 4 6 4 4 4 5 5 5 6 9
7 8 9 10 11 11 11 13 11 13 10 10 9 10 10 10 7 8 6 5 4 4 3 3 4 3 2 5 11 6 4 5 4 5 4 6 7 6
4 5 7 8 9 10 9 9 10 10 12 10 9 10 10 10 9 7 6 6 5 5 6 4 3 2 3 6 5 12 8 7 7 4 6 5 7 8
1 2 4 6 7 9 9 9 9 9 9 10 10 10 9 8 9 9 8 8 6 5 7 5 4 4 4 7 7 5 15 7 5 7 5 3 1 3
2 2 3 4 5 6 8 8 10 9 10 9 9 9 9 10 10 9 9 9 7 8 8 7 6 12 9 3 5 9 4 14 9 7 5 5 4 3
5 5 4 4 4 3 6 7 8 9 9 9 8 8 8 8 9 10 9 10 9 8 9 7 7 7 7 4 8 7 3 4 1 3 2 7 6 6
6 5 5 5 4 5 4 5 6 8 8 9 9 9 8 9 9 9 9 11 10 10 11 9 8 7 8 7 7 5 6 4 2 3 4 3 5 3
Wind_Direction
353 9 15 346 225 220 239 187 229 225 249 177 310 232 255 150 189 75 53 334 277 259 225 212 218 219 220 220 219 221 220 219 221 223 222 224 227 229
322 319 314 271 296 284 233 218 222 240 265 221 247 243 258 219 171 154 175 182 103 258 251 239 218 221 220 217 214 215 216 216 216 216 214 217 223 226
339 342 321 290 257 251 278 275 256 218 244 268 213 231 285 256 232 197 200 228 237 194 320 284 256 244 220 220 214 214 214 216 216 217 215 215 217 217
335 338 323 314 298 262 241 259 250 249 218 272 236 223 222 236 265 257 224 230 239 217 216 242 257 244 237 234 218 212 213 211 210 212 214 216 220 220
331 328 313 323 314 302 272 259 251 251 231 219 262 246 233 218 260 267 267 227 210 240 231 241 247 261 236 227 227 226 213 212 208 208 209 211 213 219
326 326 324 326 316 303 272 258 251 260 268 265 260 268 249 262 245 269 288 229 236 230 244 219 223 238 234 226 217 215 223 217 211 207 209 211 210 212
328 324 336 314 326 333 344 303 270 244 236 249 272 270 251 233 217 245 253 263 249 219 234 206 200 191 200 219 225 219 213 220 221 213 214 213 214 214
330 334 338 327 351 356 345 334 278 256 268 234 242 247 261 254 231 230 243 254 297 271 212 266 163 218 263 183 191 214 210 212 219 218 215 216 216 221
4 353 350 23 15 2 352 348 340 322 250 243 259 256 258 230 248 270 245 230 226 257 143 250 195 228 200 180 190 204 197 220 218 217 216 216 215 218
350 338 343 26 20 10 355 349 342 331 325 319 244 282 284 272 220 245 258 250 256 246 166 237 200 222 195 210 213 218 217 242 230 211 214 213 212 218
339 343 336 350 358 1 351 336 327 315 313 306 320 307 299 283 260 215 260 244 268 241 199 195 215 222 214 208 213 217 217 233 217 194 204 197 206 210
338 331 330 334 340 339 333 324 309 297 303 309 312 309 292 284 270 215 225 222 219 293 228 182 170 168 284 260 197 189 214 205 203 210 224 208 194 184
335 330 327 325 323 319 316 304 282 293 295 288 286 282 284 278 265 221 218 200 210 232 230 162 184 173 245 270 245 180 191 197 188 209 193 188 187 188
324 319 319 319 316 312 327 320 304 299 287 278 273 266 272 283 284 281 241 222 215 217 212 186 207 181 203 250 243 233 203 198 198 195 185 181 179 197
325 321 325 343 348 350 354 353 355 357 345 309 286 273 268 275 289 305 294 261 227 227 234 197 196 211 189 215 227 226 223 220 199 199 177 176 181 165
339 319 347 355 358 355 356 353 351 352 348 340 332 328 314 311 302 296 305 300 264 275 258 236 211 190 215 222 203 241 209 237 190 207 205 202 199 180
346 359 357 357 355 352 349 348 345 348 347 344 333 331 334 336 332 325 308 302 289 270 280 275 253 217 214 205 209 234 225 229 232 200 181 209 202 210
17 7 358 352 348 344 343 340 339 340 339 327 327 326 325 328 330 321 322 321 302 283 269 264 281 314 315 273 207 233 222 230 220 232 222 211 231 214
43 8 3 353 342 337 333 329 326 327 326 326 323 313 314 315 320 325 333 332 334 353 332 305 279 224 254 258 260 213 219 234 241 233 223 201 222 213
62 348 339 341 340 331 328 325 320 319 319 320 319 322 314 305 314 318 317 319 320 320 311 307 288 253 230 256 263 251 209 226 190 233 237 231 287 29
203 271 274 302 326 323 321 320 319 315 313 310 312 311 319 321 318 307 297 295 310 310 302 299 295 297 285 301 281 266 259 223 216 199 207 213 207 180
206 214 235 251 269 291 311 312 311 314 316 311 308 309 309 310 307 306 299 299 298 297 292 289 296 304 296 263 267 261 253 264 223 214 98 208 172 199
210 207 220 231 241 260 251 275 297 305 307 311 309 305 302 299 292 286 282 284 295 293 287 290 298 285 277 267 247 253 248 256 237 234 234 223 198 148